This is the latest recevied weather packets stored in our database for station/object DL4SAV. If no packets are shown the sender has not sent any weather packets the latest 10 day(s).
| Time | Temp. | Humidity | Pressure | Rain* | Wind** | Luminosity | Snow |
|---|---|---|---|---|---|---|---|
| 1788112567 | 23.33° C | 58% | 1016 hPa | 0 mm | - | - | - |
| 1788112267 | 23.89° C | 57% | 1016 hPa | 0 mm | - | - | - |
| 1788111966 | 23.89° C | 57% | 1016 hPa | 0 mm | - | - | - |
| 1788111666 | 24.44° C | 56% | 1015.9 hPa | 0 mm | - | - | - |
| 1788111366 | 25° C | 55% | 1015.8 hPa | 0 mm | - | - | - |
| 1788111066 | 25.56° C | 54% | 1015.7 hPa | 0 mm | - | - | - |
| 1788110765 | 25.56° C | 54% | 1016 hPa | 0 mm | - | - | - |
| 1788110465 | 26.11° C | 53% | 1015.9 hPa | 0 mm | - | - | - |
| 1788110165 | 26.11° C | 53% | 1016 hPa | 0 mm | - | - | - |
| 1788109865 | 26.11° C | 54% | 1015.9 hPa | 0 mm | - | - | - |
| 1788109564 | 26.11° C | 53% | 1016 hPa | 0 mm | - | - | - |
| 1788109264 | 26.11° C | 53% | 1016 hPa | 0 mm | - | - | - |
| 1788108964 | 26.11° C | 53% | 1015.8 hPa | 0 mm | - | - | - |
| 1788108679 | 26.11° C | 53% | 1016.1 hPa | 0 mm | - | - | - |
| 1788108363 | 26.67° C | 53% | 1016.1 hPa | 0 mm | - | - | - |
| 1788108063 | 26.67° C | 52% | 1016 hPa | 0 mm | - | - | - |
| 1788107762 | 26.67° C | 52% | 1016 hPa | 0 mm | - | - | - |
| 1788107462 | 26.67° C | 52% | 1016 hPa | 0 mm | - | - | - |
| 1788107162 | 26.67° C | 52% | 1016 hPa | 0 mm | - | - | - |
| 1788106862 | 26.67° C | 53% | 1016.1 hPa | 0 mm | - | - | - |
| 1788106561 | 26.11° C | 54% | 1016 hPa | 0 mm | - | - | - |
| 1788106261 | 26.11° C | 54% | 1016 hPa | 0 mm | - | - | - |
| 1788105961 | 26.11° C | 54% | 1016.1 hPa | 0 mm | - | - | - |
| 1788105661 | 25.56° C | 55% | 1016.1 hPa | 0 mm | - | - | - |
| 1788105360 | 25.56° C | 55% | 1016 hPa | 0 mm | - | - | - |
* Rain latest hour (hover to see other rain measurements)
** Current wind speed in m/s (hover to see current wind gust speed)